www.pogodaiklimat.ru

Погода и климат >> Архив погоды >> Россия >> Красноярский край >> Бор


ПОГОДА в Боре

АРХИВ ПОГОДЫ в Боре

Время (UTC), дата Ветер
(напр.,м/с)
 
Видим.   Явления Облачность Т
(С)
Тd
(С)
f
(%)
Тe
(С)
Тes
(С)
Комфортность P
(гПа)
Po
(гПа)
Тmin
(С)
Tmax
(С)
R
(мм)
R24
(мм)
S
(см)
03 9.07 В 1 50 км 3/0
[Ci fib]
+20.5 +10.2 52 +23 +33 комфорт 1019.5 1012.7
06 9.07 З 1 50 км 3/3 600 м
[Cu hum]
+24.2 +8.8 37 +25 +36 комфорт 1017.7 1011.0
09 9.07 В 1 50 км 6/0
[Ci fib]
+25.9 +8.3 33 +26 +36 жарко 1016.2 1009.5
12 9.07 С 1 50 км 8/0
[Ci fib]
+25.5 +8.0 33 +26 +28 жарко 1015.3 1008.6 +27.0
15 9.07 штиль 0 20 км 8/0
[Ci fib]
+18.8 +8.6 51 +19 +19 1014.9 1008.1
18 9.07 штиль 0 н/о 4/0
[Ci fib]
+13.3 +10.2 81 +13 +13 1015.1 1008.2
21 9.07 штиль 0 20 км 5/0
[Ci fib]
+10.9 +8.9 87 +10 +10 1015.0 1007.9
00 10.07 штиль 0 50 км 3/0
[Ci fib]
+14.0 +9.7 75 +14 +17 1014.9 1008.0 +9.8
03 10.07 ЮВ 1 50 км 8/0
[Ci fib]
+21.8 +11.4 52 +24 +33 комфорт 1014.0 1007.3
06 10.07 З 2 50 км 6/0
[Ci fib]
+26.2 +8.8 33 +26 +38 жарко 1012.9 1006.2
09 10.07 СЗ 2 50 км 6/0
[Ci fib]
+27.9 +8.6 30 +28 +36 жарко 1011.7 1005.1
12 10.07 СЗ 2 20 км 10/10 600 м
[Sc]
+25.3 +11.2 41 +27 +27 жарко 1011.2 1004.6 +28.6
15 10.07 штиль 0 20 км 9/9 600 м
[Cb cap]
+22.0 +12.7 56 +25 +25 комфорт 1011.3 1004.7
18 10.07 штиль 0 н/о 9/9 600 м
[Cb cap]
+18.0 +13.6 75 +18 +18 1010.9 1004.2
21 10.07 штиль 0 20 км 9/9 600 м
[Sc]
+16.4 +14.7 90 +16 +16 1010.5 1003.8
00 11.07 З 2 20 км 8/3 600 м
[Sc Ci fib]
+18.2 +15.0 82 +19 +20 1010.5 1003.8 +15.9
03 11.07 СЗ 3 20 км 9/9 600 м
[Cb cap]
+19.3 +15.4 78 +21 +22 комфорт 1010.8 1004.1
06 11.07 СЗ 2 50 км 8/8 600 м
[Cu med, cong]
+22.3 +13.7 58 +25 +28 комфорт 1010.4 1003.8
09 11.07 С 3 50 км 8/8 600 м
[Cu med, cong]
+26.2 +12.9 44 +28 +30 жарко 1009.6 1003.1
12 11.07 С 2 50 км 6/6 600 м
[Cu med, cong]
+26.3 +10.5 37 +27 +28 жарко 1009.0 1002.5 +30.5
15 11.07 СЗ 1 20 км ясно +22.1 +11.6 51 +24 +24 комфорт 1009.3 1002.7
18 11.07 СЗ 1 н/о ясно +15.6 +11.1 75 +16 +16 1009.8 1002.9
21 11.07 штиль 0 20 км ясно +12.4 +10.9 91 +12 +12 1009.7 1002.8
00 12.07 штиль 0 50 км ясно +19.2 +12.6 66 +20 +23 1010.0 1003.3 +12.2
03 12.07 СВ 1 50 км 1/0
[Ci fib]
+23.1 +12.0 50 +26 +36 жарко 1009.7 1003.1
06 12.07 ЮВ 2 50 км 6/4 600 м
[Cu Sc Ci fib]
+27.0 +11.3 38 +28 +35 жарко 1008.9 1002.2
09 12.07 ЮВ 3 50 км 5/3 600 м
[Cu hum Ci fib]
+28.6 +11.5 35 +29 +34 жарко 1007.6 1001.1
12 12.07 ЮЗ 1 50 км 4/0
[Ci fib]
+28.7 +11.6 35 +30 +32 жарко 1006.6 1000.1 +29.4
15 12.07 З 1 20 км 8/0
[Ci fib]
+23.4 +12.6 51 +26 +26 жарко 1006.4 999.8
18 12.07 СЗ 1 н/о 9/5 600 м
[Sc Ci fib]
+17.2 +11.5 69 +18 +18 1006.4 999.7
21 12.07 штиль 0 20 км 10/5 600 м
[Sc Cs]
+15.6 +12.3 81 +15 +15 1006.1 999.2
00 13.07 СЗ 1 20 км 9/4 600 м
[Sc Ci sp]
+16.8 +12.9 78 +18 +19 1005.7 999.0 +14.8
03 13.07 СЗ 1 50 км 9/3 600 м
[Sc Ac trans Ci fib]
+21.2 +12.6 58 +23 +28 комфорт 1005.2 998.6
06 13.07 СЗ 2 20 км 9/8 600 м
[Sc Ci fib]
+22.8 +12.3 52 +26 +28 жарко 1005.4 998.8
09 13.07 СЗ 2 50 км 8/0
[Ac trans Ci fib]
+24.2 +9.4 39 +25 +31 комфорт 1005.1 998.5
12 13.07 СЗ 3 50 км 3/3 600 м
[Cu med, cong]
+24.9 +9.6 38 +26 +27 жарко 1004.8 998.2 +26.0
15 13.07 СЗ 2 20 км 3/0
[Ci fib]
+20.8 +8.7 46 +23 +23 комфорт 1006.2 999.5
18 13.07 СЗ 2 н/о 3/3 600 м
[Sc Ci fib]
+17.2 +8.5 57 +18 +18 1007.2 1000.5
21 13.07 СЗ 2 20 км 4/4 600 м
[Sc]
+13.8 +7.3 65 +13 +13 1007.7 1000.8
00 14.07 СЗ 2 50 км ясно +12.7 +5.7 62 +12 +14 1008.1 1001.2 +11.9
03 14.07 СЗ 3 50 км ясно +17.3 +6.9 50 +17 +25 1008.0 1001.3
06 14.07 С 2 50 км ясно +22.7 +8.2 39 +24 +37 комфорт 1008.1 1001.5
09 14.07 С 2 50 км 5/5 600 м
[Cu med, cong]
+24.8 +7.9 34 +25 +30 комфорт 1008.3 1001.7
12 14.07 СВ 2 50 км ясно +24.4 +5.9 30 +24 +27 комфорт 1009.0 1002.4 +25.6
15 14.07 СВ 1 20 км 3/0
[Ac lent]
+20.7 +8.8 46 +23 +23 комфорт 1010.7 1004.0
18 14.07 СВ 1 н/о ясно +15.6 +7.6 59 +16 +16 1012.6 1005.7
21 14.07 СЗ 1 20 км ясно +9.7 +7.2 84 +9 +9 1013.7 1006.6
00 15.07 СЗ 1 50 км ясно +15.1 +10.6 74 +16 +18 1014.2 1007.3 +9.5
03 15.07 З 2 50 км ясно +19.6 +9.9 53 +21 +30 комфорт 1015.0 1008.2
06 15.07 С 2 50 км 3/3 600 м
[Cu hum]
+24.4 +6.2 31 +24 +33 комфорт 1014.1 1007.4
09 15.07 СЗ 2 50 км ясно +25.7 +5.7 28 +25 +34 комфорт 1013.4 1006.7
12 15.07 С 2 50 км ясно +25.7 +6.6 30 +26 +28 жарко 1013.6 1006.9 +27.2
15 15.07 СЗ 1 20 км ясно +20.1 +6.1 40 +22 +22 комфорт 1014.2 1007.4
18 15.07 С 1 н/о 5/0
[Ci fib]
+14.0 +6.8 62 +14 +14 1014.7 1007.8
21 15.07 СЗ 1 20 км ясно +10.2 +7.3 82 +10 +10 1015.1 1008.0
00 16.07 ЮВ 1 50 км ясно +14.0 +9.7 75 +14 +17 1015.5 1008.6 +9.0

 

Местоположение метеостанции Бор (Красноярский край, Россия): широта 61.60 долгота 90.02 высота над уровнем моря 58 м.

В архиве по умолчанию представлена погода в Боре за последнюю неделю. Архивные данные за месяц целиком и за предыдущие месяцы, начиная с января 2011 года, Вы можете получить, выбрав интересующий диапазон дат из раскрывающегося списка и нажав кнопку "Ввод!".


*Определитесь, кто Вы:
робот инопланетянин человек

Внимание! Время в таблицах - всемирное. Для получения местного времени необходимо прибавить поправку, которая в Боре равна 7 ч.

Смотрите также архив погоды в соседних городах и на ближайших метеорологических станциях:

Погода в Ворогове (Красноярский край, Россия) (67 км)
Погода в Бахте (Красноярский край, Россия) (110 км)
Погода в Кузьмовке (Эвенкия, Россия) (136 км)
Погода в Ярцеве (Красноярский край, Россия) (147 км)
Погода в Сыме (Красноярский край, Россия) (165 км)
Погода в Вельмо (Красноярский край, Россия) (193 км)
Погода в Верхнеимбатске (Красноярский край, Россия) (203 км)
Погода в Северо-Енисейском (Красноярский край, Россия) (212 км)
Погода в Келлоге (Красноярский край, Россия) (218 км)
Погода в Назимово (Красноярский край, Россия) (240 км)

Пояснения к столбцам:

Ветер - указаны скорость ветра в м/с - средняя за 10 мин, порывы в срок и между сроками (в фигурных скобках) и направление, откуда дует ветер: С - северный, СВ - северо-восточный, В - восточный, ЮВ - юго-восточный, Ю - южный, ЮЗ - юго-западный, З - западный, СЗ - северо-западный.
Видимость - горизонтальная дальность видимости в метрах или километрах. При видимости от 1 до 10 км при отсутствии осадков обычно наблюдается дымка, при ухудшении видимости до 1 км и менее - туман. В сухую погоду видимость может ухудшаться дымом, пылью или мглою.
Явления - указаны атмосферные явления, наблюдавшиеся в срок или в последний час перед сроком; фигурными скобками обозначены явления, наблюдавшиеся между сроками (за 1-3 часа до срока); квадратными скобками обозначены град или гололедные отложения с указанием их диаметра в мм.
Облачность - указаны через наклонную черту общая и нижняя облачность в баллах и высота нижней границы облаков в метрах; квадратными скобками обозначены формы облаков: Ci - перистые, Cs - перисто-слоистые, Cc - перисто-кучевые, Ac - высококучевые, As - высокослоистые, Sc - слоисто-кучевые, Ns - слоисто-дождевые, Cu - кучевые, Cb - кучево-дождевые. Подробнее классификацию облаков см. в Атласе облаков (PDF).
T - Температура воздуха - температура, измеренная на высоте 2 м над землей.
Td - Температура точки росы - температура, при понижении до которой содержащийся в воздухе водяной пар достигнет насыщения.
f - Относительная влажность воздуха - влажноcть воздуха, измеренная на высоте 2 м над землей.
Te - Эффективная температура - температура, которую ощущает одетый по сезону человек в тени. Характеристика душности погоды. При расчете учитывается влияние влажности воздуха и скорости ветра на теплоощущения человека.
Tes - Эффективная температура на солнце - температура, которую ощущает человек, с поправкой на солнечный нагрев. Характеристика знойности погоды. Зависит от высоты солнца над горизонтом, облачности и скорости ветра. Ночью, в пасмурную погоду, а также при ветре 12 м/с и более поправка равна нулю.
P - Атмосферное давление - приведенное к уровню моря атмосферное давление.
Po - Атмосферное давление - измеренное на уровне метеостанции атмосферное давление.
Tmin - Минимальная температура - минимум температуры воздуха на высоте 2 м над землей.
Tmax - Максимальная температура - максимум температуры воздуха на высоте 2 м над землей.
R - Количество осадков - Количество выпавших осадков за период времени, мм. При наведении курсора мыши на число - период времени, за который выпало указанное количество осадков.
R24 - Количество осадков - Количество выпавших осадков за 24 часа, мм.
S - Снежный покров - Высота снежного покрова, см. При наведении курсора мыши на число - состояние снежного покрова и степень покрытия местности в баллах.